Orbital Elements at Epoch 2459200.5 (2020-Dec-17.0) TDB
Reference: JPL 13 (heliocentric ecliptic J2000)
Element | Value | Uncertainty (1-sigma) | Units |
e | .5160131484262508 | 0.00037611 | |
a | .7656262590052167 | 6.3763e-05 | au |
q | .3705530425781227 | 0.00031882 | au |
i | 1.391491758783536 | 0.0017695 | deg |
node | 7.681913401323743 | 0.0055063 | deg |
peri | 164.2927359112667 | 0.00060872 | deg |
M | 335.4653595782756 | 0.34105 | deg |
tp | 2459217.176344330031 (2021-Jan-02.67634433) | 0.2339 | TDB |
period | 244.6941897504031 0.67 | 0.030568 8.369e-05 | d yr |
n | 1.471224144583135 | 0.00018379 | deg/d |
Q | 1.160699475432311 | 9.6666e-05 | au |
|
| | Orbit Determination Parameters
Additional Information
|